EW4931 Weather Reports


time (UTC)temp
C
wind
direction
speed
KPH
gust
KPH
rain 1hr
cm
rain 24hr
cm
rain mn
cm
humidity
%
barometer
mb
20260901081403 17 135 0.0 0.0 0.00 0.00 0.00 88 1007.1
20260901080903 17 135 0.0 0.0 0.00 0.00 0.00 87 1007.1
20260901080403 17 135 0.0 0.0 0.00 0.00 0.00 86 1007.1
20260901075903 17 135 0.0 0.0 0.00 0.00 0.00 86 1007.1
20260901075403 17 135 0.0 0.0 0.00 0.00 0.00 86 1007.1
20260901074903 17 135 0.0 0.0 0.00 0.00 0.00 87 1007.0
20260901074403 17 135 0.0 0.0 0.00 0.00 0.00 88 1007.0
20260901073903 17 135 0.0 0.0 0.00 0.00 0.00 88 1006.9
20260901073403 17 135 0.0 0.0 0.00 0.00 0.00 87 1006.8
20260901072903 17 135 0.0 0.0 0.00 0.00 0.00 87 1006.9
20260901072402 17 135 0.0 3.2 0.00 0.00 0.00 87 1006.8
20260901071902 17 135 1.6 3.2 0.00 0.00 0.00 88 1006.8
20260901071846 17 133 0.0 3.2 0.00 0.00 0.00 88 1006.7
20260901070903 17 133 0.0 3.2 0.00 0.00 0.00 89 1006.7
20260901070402 17 133 0.0 3.2 0.00 0.00 0.00 89 1006.6
20260901065903 16 133 0.0 1.6 0.00 0.00 0.00 89 1006.6
20260901065402 16 266 0.0 0.0 0.00 0.00 0.00 90 1006.6
20260901065351 16 266 0.0 0.0 0.00 0.00 0.00 89 1006.6
20260901064402 16 266 0.0 0.0 0.00 0.00 0.00 90 1006.5
20260901063902 16 266 0.0 0.0 0.00 0.00 0.00 90 1006.5
20260901063402 16 266 0.0 0.0 0.00 0.00 0.00 90 1006.5
20260901063129 16 266 0.0 0.0 0.00 0.00 0.00 90 1006.5
20260901062403 16 266 0.0 0.0 0.00 0.00 0.00 90 1006.4
20260901061902 16 266 0.0 0.0 0.00 0.00 0.00 91 1006.4
20260901061402 16 266 0.0 0.0 0.00 0.00 0.00 91 1006.3
20260901060902 16 266 0.0 0.0 0.00 0.00 0.00 91 1006.3
20260901060824 16 266 0.0 1.6 0.00 0.00 0.00 91 1006.4
20260901055402 16 266 1.6 3.2 0.00 0.00 0.00 91 1006.4
20260901054902 16 266 0.0 3.2 0.00 0.00 0.00 91 1006.4
20260901054402 16 266 0.0 3.2 0.00 0.00 0.00 92 1006.4
20260901053902 16 266 0.0 3.2 0.00 0.00 0.00 92 1006.5
20260901053402 16 226 0.0 3.2 0.00 0.00 0.00 93 1006.4
20260901052903 16 226 0.0 3.2 0.00 0.00 0.00 93 1006.4
20260901052403 16 226 0.0 3.2 0.00 0.00 0.00 93 1006.4
20260901051902 16 221 0.0 3.2 0.00 0.00 0.00 94 1006.4
20260901051624 16 245 1.6 1.6 0.00 0.00 0.00 94 1006.3
20260901050902 16 245 0.0 0.0 0.00 0.00 0.00 94 1006.2
20260901050402 15 245 0.0 0.0 0.00 0.00 0.00 94 1006.3
20260901045902 15 245 0.0 0.0 0.00 0.00 0.00 94 1006.3
20260901045402 15 245 0.0 0.0 0.00 0.00 0.00 94 1006.3
20260901045122 15 245 0.0 0.0 0.00 0.00 0.00 94 1006.3
20260901044401 15 245 0.0 0.0 0.00 0.00 0.00 95 1006.4
20260901043902 15 245 0.0 0.0 0.00 0.00 0.00 95 1006.4
20260901043622 15 245 0.0 0.0 0.00 0.00 0.00 94 1006.4
20260901042902 15 245 0.0 0.0 0.00 0.00 0.00 94 1006.2
20260901042402 15 245 0.0 0.0 0.00 0.00 0.00 94 1006.3
20260901041902 15 245 0.0 0.0 0.00 0.00 0.00 94 1006.4
20260901041621 15 245 0.0 0.0 0.00 0.00 0.00 94 1006.4
20260901040902 15 245 0.0 0.0 0.00 0.00 0.00 94 1006.4
20260901040404 15 245 0.0 0.0 0.00 0.00 0.00 94 1006.3
20260901035903 15 245 0.0 0.0 0.00 0.00 0.00 94 1006.4
20260901035401 14 245 0.0 0.0 0.00 0.00 0.00 94 1006.4
20260901034901 14 245 0.0 0.0 0.00 0.00 0.00 94 1006.4
20260901034402 14 245 0.0 0.0 0.00 0.00 0.00 93 1006.4
20260901033902 14 245 0.0 0.0 0.00 0.00 0.00 94 1006.4
20260901033402 14 245 0.0 0.0 0.00 0.00 0.00 93 1006.4
20260901032902 14 245 0.0 0.0 0.00 0.00 0.00 93 1006.4
20260901032402 15 245 0.0 0.0 0.00 0.00 0.00 93 1006.3
20260901031902 15 245 0.0 0.0 0.00 0.00 0.00 93 1006.4
20260901031402 15 245 0.0 0.0 0.00 0.00 0.00 93 1006.3
20260901030902 15 245 0.0 0.0 0.00 0.00 0.00 93 1006.4
20260901030402 15 245 0.0 0.0 0.00 0.00 0.00 93 1006.3
20260901025902 15 245 0.0 0.0 0.00 0.00 0.00 92 1006.4
20260901025401 15 245 0.0 0.0 0.00 0.00 0.00 93 1006.3
20260901024902 15 245 0.0 0.0 0.00 0.00 0.00 93 1006.3
20260901024402 15 245 0.0 0.0 0.00 0.00 0.00 93 1006.4
20260901023902 15 245 0.0 0.0 0.00 0.00 0.00 93 1006.3
20260901023402 15 245 0.0 0.0 0.00 0.00 0.00 93 1006.3
20260901022902 15 245 0.0 0.0 0.00 0.00 0.00 93 1006.3
20260901022402 15 245 0.0 0.0 0.00 0.00 0.00 93 1006.4
20260901021902 15 245 0.0 1.6 0.00 0.00 0.00 93 1006.4
20260901021402 15 245 0.0 1.6 0.00 0.00 0.00 93 1006.3
20260901020902 15 245 0.0 0.0 0.00 0.00 0.00 93 1006.3
20260901020403 15 245 0.0 0.0 0.00 0.00 0.00 93 1006.3
20260901015902 15 245 0.0 0.0 0.00 0.00 0.00 93 1006.2
20260901015403 15 245 0.0 0.0 0.00 0.00 0.00 93 1006.2
20260901014903 15 245 0.0 0.0 0.00 0.00 0.00 93 1006.3
20260901014403 15 245 0.0 0.0 0.00 0.00 0.00 93 1006.3
20260901013903 15 245 0.0 0.0 0.00 0.00 0.00 92 1006.3
20260901013403 15 245 0.0 0.0 0.00 0.00 0.00 92 1006.3
20260901012903 15 245 0.0 0.0 0.00 0.00 0.00 92 1006.2
20260901012403 15 245 0.0 0.0 0.00 0.00 0.00 92 1006.3
20260901011903 15 245 0.0 0.0 0.00 0.00 0.00 92 1006.3
20260901011403 15 245 0.0 0.0 0.00 0.00 0.00 92 1006.3
20260901010903 15 245 0.0 0.0 0.00 0.00 0.00 92 1006.3
20260901010404 15 245 0.0 0.0 0.00 0.00 0.00 92 1006.4
20260901005903 15 245 0.0 0.0 0.00 0.00 0.00 92 1006.4
20260901005403 15 245 0.0 0.0 0.00 0.00 0.00 92 1006.5
20260901005121 15 245 0.0 0.0 0.00 0.00 0.00 92 1006.5
20260901004404 15 245 0.0 0.0 0.00 0.00 0.00 92 1006.5
20260901003904 15 245 0.0 0.0 0.00 0.00 0.00 92 1006.5
20260901003358 15 245 0.0 0.0 0.00 0.00 0.00 92 1006.5
20260901002850 15 245 0.0 0.0 0.00 0.00 0.00 92 1006.5
20260901002350 15 245 0.0 0.0 0.00 0.00 0.00 92 1006.6
20260901001842 15 245 0.0 0.0 0.00 0.00 0.00 92 1006.5
20260901001340 15 245 0.0 0.0 0.00 0.00 0.00 92 1006.5
20260901000839 15 245 0.0 0.0 0.00 0.00 0.00 92 1006.4
20260901000340 15 245 0.0 0.0 0.00 0.00 0.00 92 1006.5
20260831235839 15 245 0.0 0.0 0.00 0.00 0.00 92 1006.5
20260831235340 15 245 0.0 0.0 0.00 0.00 0.00 92 1006.6
20260831234839 15 247 0.0 0.0 0.00 0.00 0.00 91 1006.6
20260831234340 15 247 0.0 0.0 0.00 0.00 0.00 91 1006.6
20260831233839 15 247 0.0 0.0 0.00 0.00 0.00 91 1006.5
20260831233339 15 247 0.0 0.0 0.00 0.00 0.00 90 1006.6
20260831232839 15 247 0.0 0.0 0.00 0.00 0.00 90 1006.5
20260831232338 15 247 0.0 0.0 0.00 0.00 0.00 90 1006.5
20260831231838 15 247 0.0 0.0 0.00 0.00 0.00 90 1006.5
20260831231338 15 247 0.0 0.0 0.00 0.00 0.00 90 1006.5
20260831230839 15 247 0.0 0.0 0.00 0.00 0.00 90 1006.5
20260831230600 16 247 0.0 0.0 0.00 0.00 0.00 89 1006.6
20260831230106 16 247 0.0 0.0 0.00 0.00 0.00 89 1006.7
20260831225338 16 247 0.0 1.6 0.00 0.00 0.00 89 1006.6
20260831224838 16 247 0.0 3.2 0.00 0.00 0.00 89 1006.6
20260831224338 16 247 0.0 4.8 0.00 0.00 0.00 89 1006.7
20260831223838 16 240 1.6 8.0 0.00 0.00 0.00 89 1006.6
20260831223338 16 290 3.2 8.0 0.00 0.00 0.00 89 1006.7
20260831222838 16 281 0.0 4.8 0.00 0.00 0.00 90 1006.6
20260831222337 16 255 0.0 4.8 0.00 0.00 0.00 90 1006.7
20260831221838 16 281 3.2 4.8 0.00 0.00 0.00 90 1006.7
20260831221604 16 243 1.6 4.8 0.00 0.00 0.00 90 1006.8
20260831220837 16 271 0.0 4.8 0.00 0.00 0.00 90 1006.8
20260831220337 16 300 1.6 4.8 0.00 0.00 0.00 90 1006.8
20260831215837 16 248 0.0 4.8 0.00 0.00 0.00 90 1006.8
20260831215337 16 212 1.6 4.8 0.00 0.00 0.00 90 1006.8
20260831214836 16 216 0.0 3.2 0.00 0.00 0.00 90 1006.9
20260831214556 16 233 0.0 4.8 0.00 0.00 0.00 90 1006.9
20260831213837 16 231 1.6 6.4 0.00 0.00 0.00 90 1006.9
20260831213337 16 233 1.6 6.4 0.00 0.00 0.00 90 1006.9
20260831212836 16 141 0.0 4.8 0.00 0.00 0.00 90 1006.9
20260831212336 16 206 1.6 4.8 0.00 0.00 0.00 89 1006.9
20260831211836 16 214 0.0 4.8 0.00 0.00 0.00 89 1006.9
20260831211336 16 254 1.6 4.8 0.00 0.00 0.00 89 1006.9
20260831210836 16 168 0.0 3.2 0.00 0.00 0.00 89 1006.8
20260831210335 16 243 0.0 4.8 0.00 0.00 0.00 89 1006.8
20260831205835 16 212 0.0 6.4 0.00 0.00 0.00 89 1006.7
20260831205825 16 216 0.0 6.4 0.00 0.00 0.00 89 1006.8
20260831204835 16 199 1.6 3.2 0.00 0.00 0.00 89 1006.8
20260831204335 16 209 0.0 3.2 0.00 0.00 0.00 89 1006.7
20260831203835 16 209 0.0 3.2 0.00 0.00 0.00 88 1006.6
20260831203335 16 210 0.0 1.6 0.00 0.00 0.00 88 1006.6
20260831202835 16 210 0.0 4.8 0.00 0.00 0.00 88 1006.6
20260831202335 16 210 0.0 4.8 0.00 0.00 0.00 88 1006.6
20260831201835 16 209 0.0 3.2 0.00 0.00 0.00 88 1006.6
20260831201335 15 196 0.0 3.2 0.00 0.00 0.00 88 1006.6
20260831200834 15 196 0.0 0.0 0.00 0.00 0.00 88 1006.6
20260831200334 15 196 0.0 1.6 0.00 0.00 0.00 88 1006.6
20260831195835 15 196 0.0 1.6 0.00 0.00 0.00 88 1006.6
20260831195334 15 196 0.0 1.6 0.00 0.00 0.00 88 1006.6
20260831195056 15 196 0.0 1.6 0.00 0.00 0.00 88 1006.6
20260831194334 15 197 0.0 1.6 0.00 0.00 0.00 88 1006.6
20260831193834 15 197 0.0 1.6 0.00 0.00 0.00 88 1006.7
20260831193334 15 197 0.0 3.2 0.00 0.00 0.00 88 1006.6
20260831192834 15 197 0.0 3.2 0.00 0.00 0.00 88 1006.6
20260831192525 15 196 0.0 3.2 0.00 0.00 0.00 88 1006.7
20260831191333 15 200 0.0 0.0 0.00 0.00 0.00 87 1006.6
20260831190834 15 200 0.0 0.0 0.00 0.00 0.00 87 1006.5
20260831190334 15 200 0.0 0.0 0.00 0.00 0.00 87 1006.5
20260831185833 15 200 0.0 0.0 0.00 0.00 0.00 86 1006.6
20260831185334 15 200 0.0 0.0 0.00 0.00 0.00 86 1006.5
20260831184833 16 200 0.0 0.0 0.00 0.00 0.00 86 1006.5
20260831184331 16 200 0.0 0.0 0.00 0.00 0.00 86 1006.5
20260831183831 16 200 0.0 0.0 0.00 0.00 0.00 85 1006.5
20260831183330 16 200 0.0 0.0 0.00 0.00 0.00 85 1006.6
20260831183050 16 200 0.0 0.0 0.00 0.00 0.00 84 1006.6
20260831182306 16 200 0.0 0.0 0.00 0.00 0.00 84 1006.6
20260831181805 16 200 0.0 0.0 0.00 0.00 0.00 83 1006.5
20260831181305 16 200 0.0 0.0 0.00 0.00 0.00 83 1006.6
20260831180806 16 200 0.0 0.0 0.00 0.00 0.00 82 1006.5
20260831180304 16 200 0.0 0.0 0.00 0.00 0.00 82 1006.5
20260831175804 17 200 0.0 0.0 0.00 0.00 0.00 82 1006.5
20260831175529 17 200 0.0 1.6 0.00 0.00 0.00 81 1006.5
20260831174803 17 200 0.0 3.2 0.00 0.00 0.00 81 1006.5
20260831174303 17 200 0.0 3.2 0.00 0.00 0.00 81 1006.5
20260831173803 17 200 0.0 3.2 0.00 0.00 0.00 81 1006.5
20260831173304 17 199 0.0 6.4 0.00 0.00 0.00 80 1006.6
20260831172803 17 197 1.6 6.4 0.00 0.00 0.00 80 1006.5
20260831172306 17 199 1.6 4.8 0.00 0.00 0.00 79 1006.6
20260831171803 17 195 0.0 4.8 0.00 0.00 0.00 79 1006.5
20260831171304 17 199 3.2 4.8 0.00 0.00 0.00 79 1006.6
20260831170804 17 228 0.0 8.0 0.00 0.00 0.00 78 1006.5
20260831170305 17 265 1.6 8.0 0.00 0.00 0.00 77 1006.5
20260831165804 17 257 1.6 3.2 0.00 0.00 0.00 77 1006.4
20260831165305 17 244 1.6 3.2 0.00 0.00 0.00 77 1006.4
20260831164805 17 247 1.6 8.0 0.00 0.00 0.00 76 1006.4
20260831164304 18 281 3.2 8.0 0.00 0.00 0.00 76 1006.3
20260831164027 18 264 3.2 6.4 0.00 0.00 0.00 75 1006.4
20260831163305 18 243 1.6 8.0 0.00 0.00 0.00 74 1006.4
20260831162805 18 252 3.2 8.0 0.00 0.00 0.00 73 1006.3
20260831162306 18 226 1.6 8.0 0.00 0.00 0.00 73 1006.4
20260831161804 18 265 0.0 8.0 0.00 0.00 0.00 73 1006.4
20260831161305 18 290 3.2 4.8 0.00 0.00 0.00 72 1006.3
20260831160805 18 254 1.6 8.0 0.00 0.00 0.00 72 1006.4
20260831160304 18 230 3.2 8.0 0.00 0.00 0.00 72 1006.4
20260831155805 18 257 3.2 6.4 0.00 0.00 0.00 72 1006.4
20260831155306 18 285 1.6 4.8 0.00 0.00 0.00 73 1006.4
20260831154804 18 279 0.0 6.4 0.00 0.00 0.00 73 1006.5
20260831154305 18 279 1.6 6.4 0.00 0.00 0.00 72 1006.4
20260831154249 18 289 1.6 6.4 0.00 0.00 0.00 73 1006.2
20260831153758 18 326 3.2 14.5 0.00 0.00 0.00 72 1006.4
20260831153023 18 269 6.4 14.5 0.00 0.00 0.00 71 1006.4
20260831152306 18 306 4.8 9.7 0.00 0.00 0.00 71 1006.4
20260831151806 18 306 1.6 14.5 0.00 0.00 0.00 72 1006.4
20260831151305 18 272 8.0 14.5 0.00 0.00 0.00 70 1006.5
20260831150805 18 298 4.8 11.3 0.00 0.00 0.00 72 1006.5
20260831150305 18 261 3.2 9.7 0.00 0.00 0.00 71 1006.6
20260831145805 18 243 1.6 11.3 0.00 0.00 0.00 71 1006.5
20260831145306 18 312 3.2 11.3 0.00 0.00 0.00 70 1006.4
20260831144805 18 283 4.8 14.5 0.00 0.00 0.00 69 1006.4
20260831144523 19 286 6.4 14.5 0.00 0.00 0.00 70 1006.3
20260831143805 18 323 4.8 9.7 0.00 0.00 0.00 72 1006.2
20260831143304 18 310 3.2 11.3 0.00 0.00 0.00 72 1006.1
20260831142805 18 275 6.4 11.3 0.00 0.00 0.00 71 1006.1
20260831142306 18 290 6.4 17.7 0.00 0.00 0.00 71 1006.1
20260831141805 18 245 6.4 17.7 0.00 0.00 0.00 71 1006.1
20260831141304 18 245 6.4 19.3 0.00 0.00 0.00 73 1006.1
20260831140804 18 300 11.3 19.3 0.00 0.00 0.00 73 1006.1
20260831140304 18 285 6.4 17.7 0.00 0.00 0.00 73 1006.1
20260831135805 18 226 4.8 16.1 0.00 0.00 0.00 73 1006.2
20260831135537 18 266 3.2 16.1 0.00 0.00 0.00 74 1006.1
20260831134805 18 288 9.7 16.1 0.00 0.00 0.00 74 1006.1
20260831134305 18 313 8.0 17.7 0.00 0.00 0.00 74 1006.2
20260831133805 18 265 4.8 20.9 0.00 0.00 0.00 75 1006.1
20260831133303 18 276 8.0 20.9 0.00 0.00 0.00 74 1006.2
20260831133034 18 269 9.7 25.7 0.00 0.00 0.00 74 1006.1
20260831132524 18 266 6.4 25.7 0.00 0.00 0.00 74 1006.2
20260831131804 18 283 8.0 22.5 0.00 0.00 0.00 75 1006.1
20260831131304 18 275 6.4 22.5 0.00 0.00 0.00 75 1006.1
20260831130804 18 274 11.3 27.4 0.00 0.00 0.00 75 1006.1
20260831130304 18 316 12.9 27.4 0.00 0.00 0.00 74 1006.0
20260831125806 18 268 6.4 19.3 0.00 0.00 0.00 75 1006.0
20260831125306 18 281 6.4 19.3 0.00 0.00 0.00 75 1006.0
20260831124805 19 258 8.0 19.3 0.00 0.00 0.00 74 1006.0
20260831124305 19 300 6.4 19.3 0.00 0.00 0.00 74 1006.0
20260831123805 19 278 9.7 19.3 0.00 0.00 0.00 74 1006.0
20260831123306 19 268 9.7 19.3 0.00 0.00 0.00 74 1005.8
20260831122805 20 279 11.3 20.9 0.00 0.00 0.00 73 1005.8
20260831122306 19 255 11.3 20.9 0.00 0.00 0.00 73 1005.8
20260831122008 19 241 6.4 14.5 0.00 0.00 0.00 75 1005.7
20260831121231 19 269 3.2 16.1 0.00 0.00 0.00 75 1005.7
20260831120738 19 282 9.7 16.1 0.00 0.00 0.00 75 1005.7
20260831120231 20 299 6.4 14.5 0.00 0.00 0.00 75 1005.6
20260831115731 20 292 6.4 11.3 0.00 0.00 0.00 75 1005.6
20260831115231 20 269 8.0 11.3 0.00 0.00 0.00 76 1005.6
20260831114731 20 286 3.2 9.7 0.00 0.00 0.00 75 1005.6
20260831114231 19 285 3.2 14.5 0.00 0.00 0.00 76 1005.6
20260831113731 19 257 4.8 14.5 0.00 0.00 0.00 75 1005.5
20260831113449 19 271 8.0 14.5 0.00 0.00 0.00 75 1005.5
20260831112730 19 289 4.8 11.3 0.00 0.00 0.00 76 1005.5
20260831112231 19 302 6.4 11.3 0.00 0.00 0.00 76 1005.4
20260831111731 19 282 4.8 11.3 0.00 0.00 0.00 77 1005.4
20260831111423 19 303 8.0 17.7 0.00 0.00 0.00 77 1005.4
20260831110455 19 283 6.4 14.5 0.00 0.00 0.00 76 1005.3
20260831105952 19 285 6.4 14.5 0.00 0.00 0.00 77 1005.4
20260831105230 18 309 4.8 11.3 0.00 0.00 0.00 78 1005.2
20260831104731 18 306 6.4 14.5 0.00 0.00 0.00 79 1005.1
20260831104232 18 292 6.4 16.1 0.00 0.00 0.00 79 1005.2
20260831103732 18 271 9.7 16.1 0.00 0.00 0.00 79 1005.3
20260831103231 18 313 9.7 19.3 0.00 0.00 0.00 80 1005.3
20260831102730 18 265 6.4 19.3 0.00 0.00 0.00 80 1005.3
20260831102224 18 290 11.3 17.7 0.00 0.00 0.00 80 1005.4
20260831101725 18 285 6.4 17.7 0.00 0.00 0.00 80 1005.3
20260831101224 18 281 6.4 16.1 0.00 0.00 0.00 80 1005.3
20260831100722 18 289 4.8 16.1 0.00 0.00 0.00 80 1005.2
20260831100223 18 289 6.4 17.7 0.00 0.00 0.00 80 1005.3
20260831095723 18 244 6.4 17.7 0.00 0.00 0.00 79 1005.3
20260831095222 18 302 6.4 14.5 0.00 0.00 0.00 79 1005.2
20260831094722 18 293 3.2 11.3 0.00 0.00 0.00 81 1005.2
20260831094222 18 275 6.4 19.3 0.00 0.00 0.00 82 1005.2
20260831093722 17 286 6.4 20.9 0.00 0.00 0.00 82 1005.2
20260831093221 17 275 8.0 20.9 0.00 0.00 0.00 82 1005.2
20260831092944 17 292 9.7 19.3 0.00 0.00 0.00 82 1005.1
20260831092222 17 279 6.4 17.7 0.00 0.00 0.00 83 1005.1
20260831091722 17 309 11.3 17.7 0.00 0.00 0.00 82 1005.0
20260831091221 17 281 4.8 20.9 0.00 0.00 0.00 83 1005.0
20260831090938 17 274 4.8 20.9 0.00 0.00 0.00 83 1005.0
20260831090222 17 271 9.7 22.5 0.00 0.00 0.00 84 1005.0
20260831085721 17 295 11.3 22.5 0.00 0.00 0.00 84 1004.9
20260831085220 17 265 12.9 24.1 0.00 0.00 0.00 84 1004.7
20260831084721 17 272 9.7 24.1 0.00 0.00 0.00 84 1004.8
20260831084221 17 274 6.4 19.3 0.00 0.00 0.00 85 1004.7
20260831083720 17 290 11.3 19.3 0.00 0.00 0.00 84 1004.7
20260831083222 17 279 9.7 22.5 0.00 0.00 0.00 84 1004.7
20260831082720 17 312 11.3 22.5 0.00 0.00 0.00 85 1004.6
20260831082221 17 299 8.0 20.9 0.00 0.00 0.00 85 1004.5
20260831081720 17 282 12.9 20.9 0.00 0.00 0.00 84 1004.5